GLO1386 SBGR-SBVT

Flight info

Callsign GLO1386
Flight time 1h 1m
Altitude 35000
Route UREMI UZ42 IMDAB DCT SEGLI DCT TODET
Aircraft B738/M-SDE2E3FGHIRWXY/LB1

Departure

Time 2026-04-26 12:46
Airport São Paulo/Guarulhos–Governor André Franco Montoro International Airport (SBGR)

Arrival

Time 2026-04-26 13:47
Airport Eurico de Aguiar Salles International Airport (SBVT)
Time Latitude Longitude Altitude Speed Heading
2026-04-26 12:23 -23.42976 -46.48346 2449 ft 0 kts 25°
2026-04-26 12:36 -23.42981 -46.48349 2449 ft 2 kts 25°
2026-04-26 12:36 -23.42995 -46.48355 2449 ft 2 kts 25°
2026-04-26 12:36 -23.43008 -46.48362 2449 ft 2 kts 25°
2026-04-26 12:36 -23.43022 -46.48369 2449 ft 2 kts 25°
2026-04-26 12:37 -23.43031 -46.48374 2449 ft 2 kts 18°
2026-04-26 12:37 -23.43045 -46.48373 2449 ft 2 kts 335°
2026-04-26 12:37 -23.43057 -46.48363 2450 ft 2 kts 298°
2026-04-26 12:37 -23.43060 -46.48349 2450 ft 0 kts 267°
2026-04-26 12:38 -23.43060 -46.48342 2450 ft 1 kts 262°
2026-04-26 12:38 -23.43059 -46.48341 2450 ft 0 kts 263°
2026-04-26 12:40 -23.43061 -46.48354 2450 ft 2 kts 263°
2026-04-26 12:41 -23.43064 -46.48382 2449 ft 5 kts 263°
2026-04-26 12:41 -23.43080 -46.48418 2449 ft 5 kts 214°
2026-04-26 12:41 -23.43119 -46.48421 2450 ft 5 kts 172°
2026-04-26 12:41 -23.43158 -46.48411 2450 ft 5 kts 164°
2026-04-26 12:42 -23.43195 -46.48400 2450 ft 5 kts 163°
2026-04-26 12:42 -23.43232 -46.48388 2451 ft 5 kts 163°
2026-04-26 12:42 -23.43264 -46.48378 2452 ft 4 kts 163°
2026-04-26 12:42 -23.43299 -46.48367 2452 ft 5 kts 163°
2026-04-26 12:43 -23.43301 -46.48366 2452 ft 0 kts 163°
2026-04-26 12:44 -23.43302 -46.48366 2452 ft 1 kts 163°
2026-04-26 12:44 -23.43324 -46.48359 2453 ft 3 kts 163°
2026-04-26 12:44 -23.43352 -46.48350 2454 ft 4 kts 163°
2026-04-26 12:44 -23.43396 -46.48336 2454 ft 7 kts 163°
2026-04-26 12:45 -23.43411 -46.48327 2455 ft 2 kts 130°
2026-04-26 12:45 -23.43416 -46.48305 2455 ft 3 kts 92°
2026-04-26 12:45 -23.43411 -46.48278 2455 ft 3 kts 74°
2026-04-26 12:45 -23.43404 -46.48251 2456 ft 8 kts 73°
2026-04-26 12:46 -23.43325 -46.47963 2458 ft 76 kts 74°
2026-04-26 12:46 -23.43110 -46.47167 2455 ft 140 kts 74°
2026-04-26 12:46 -23.42776 -46.45974 2596 ft 177 kts 70°
2026-04-26 12:46 -23.42397 -46.44701 3301 ft 181 kts 70°
2026-04-26 12:47 -23.42049 -46.43450 4149 ft 177 kts 71°
2026-04-26 12:47 -23.41671 -46.42114 4707 ft 192 kts 70°
2026-04-26 12:47 -23.41260 -46.40683 5263 ft 211 kts 70°
2026-04-26 12:47 -23.40804 -46.39127 5995 ft 219 kts 69°
2026-04-26 12:48 -23.40344 -46.37493 6457 ft 243 kts 72°
2026-04-26 12:48 -23.40111 -46.35615 7100 ft 262 kts 90°
2026-04-26 12:48 -23.40511 -46.33595 7709 ft 281 kts 110°
2026-04-26 12:48 -23.41294 -46.31603 8296 ft 300 kts 112°
2026-04-26 12:49 -23.42104 -46.29502 9223 ft 303 kts 111°
2026-04-26 12:49 -23.42874 -46.27343 9823 ft 319 kts 110°
2026-04-26 12:49 -23.43633 -46.25054 10807 ft 320 kts 108°
2026-04-26 12:49 -23.44236 -46.22641 11262 ft 341 kts 102°
2026-04-26 12:50 -23.44701 -46.20073 11834 ft 356 kts 99°
2026-04-26 12:50 -23.45134 -46.17378 12399 ft 371 kts 99°
2026-04-26 12:50 -23.45583 -46.14565 13118 ft 380 kts 99°
2026-04-26 12:50 -23.46046 -46.11746 13915 ft 385 kts 100°
2026-04-26 12:51 -23.46532 -46.08864 14707 ft 390 kts 101°
2026-04-26 12:51 -23.47032 -46.05944 15436 ft 396 kts 101°
2026-04-26 12:51 -23.47540 -46.03004 16222 ft 400 kts 101°
2026-04-26 12:51 -23.48058 -46.00018 16908 ft 406 kts 102°
2026-04-26 12:52 -23.48553 -45.96969 17592 ft 411 kts 99°
2026-04-26 12:52 -23.48809 -45.93837 18252 ft 417 kts 91°
2026-04-26 12:52 -23.48587 -45.90718 18890 ft 422 kts 80°
2026-04-26 12:52 -23.48007 -45.87579 19458 ft 427 kts 75°
2026-04-26 12:53 -23.47257 -45.84404 20167 ft 429 kts 73°
2026-04-26 12:53 -23.46463 -45.81298 20736 ft 434 kts 72°
2026-04-26 12:53 -23.45635 -45.78129 21313 ft 438 kts 72°
2026-04-26 12:53 -23.44792 -45.74887 21853 ft 443 kts 72°
2026-04-26 12:54 -23.43968 -45.71665 22447 ft 446 kts 72°
2026-04-26 12:54 -23.43138 -45.68381 22927 ft 452 kts 72°
2026-04-26 12:54 -23.42312 -45.65081 23492 ft 456 kts 73°
2026-04-26 12:54 -23.41484 -45.61756 24016 ft 461 kts 73°
2026-04-26 12:55 -23.40646 -45.58376 24587 ft 464 kts 73°
2026-04-26 12:55 -23.39802 -45.54962 25078 ft 469 kts 73°
2026-04-26 12:55 -23.38957 -45.51543 25605 ft 473 kts 73°
2026-04-26 12:55 -23.38130 -45.48082 26096 ft 478 kts 75°
2026-04-26 12:56 -23.37349 -45.44555 26590 ft 482 kts 76°
2026-04-26 12:56 -23.36589 -45.40953 27113 ft 485 kts 76°
2026-04-26 12:56 -23.35849 -45.37395 27557 ft 490 kts 76°
2026-04-26 12:56 -23.35084 -45.33714 28014 ft 494 kts 76°
2026-04-26 12:57 -23.34332 -45.30107 28741 ft 491 kts 76°
2026-04-26 12:57 -23.33574 -45.26492 29459 ft 488 kts 76°
2026-04-26 12:57 -23.32813 -45.22887 30138 ft 485 kts 76°
2026-04-26 12:58 -23.31300 -45.15786 31367 ft 482 kts 75°
2026-04-26 12:58 -23.30542 -45.12252 32033 ft 479 kts 75°
2026-04-26 12:58 -23.29784 -45.08731 32226 ft 487 kts 75°
2026-04-26 12:58 -23.28999 -45.05098 32449 ft 493 kts 75°
2026-04-26 12:59 -23.28213 -45.01464 33117 ft 489 kts 75°
2026-04-26 12:59 -23.27438 -44.97880 33800 ft 486 kts 75°
2026-04-26 12:59 -23.26673 -44.94344 34407 ft 484 kts 75°
2026-04-26 12:59 -23.25893 -44.90746 34898 ft 484 kts 75°
2026-04-26 13:00 -23.25129 -44.87231 35452 ft 482 kts 75°
2026-04-26 13:00 -23.24356 -44.83677 35948 ft 482 kts 75°
2026-04-26 13:00 -23.23581 -44.80120 36363 ft 483 kts 75°
2026-04-26 13:00 -23.22809 -44.76579 36872 ft 481 kts 74°
2026-04-26 13:01 -23.22042 -44.73069 37328 ft 480 kts 74°
2026-04-26 13:01 -23.21269 -44.69537 37752 ft 479 kts 74°
2026-04-26 13:01 -23.20496 -44.66034 38116 ft 479 kts 73°
2026-04-26 13:01 -23.19598 -44.62536 38455 ft 478 kts 70°
2026-04-26 13:02 -23.18510 -44.59176 38778 ft 477 kts 66°
2026-04-26 13:02 -23.17265 -44.55840 39009 ft 478 kts 64°
2026-04-26 13:02 -23.14576 -44.49180 38987 ft 482 kts 63°
2026-04-26 13:03 -23.11816 -44.42468 38977 ft 491 kts 63°
2026-04-26 13:03 -23.09062 -44.35682 38971 ft 492 kts 63°
2026-04-26 13:04 -23.06329 -44.28885 38963 ft 489 kts 63°
2026-04-26 13:04 -23.03596 -44.22063 38960 ft 490 kts 63°
2026-04-26 13:05 -23.00895 -44.15322 38953 ft 490 kts 63°
2026-04-26 13:05 -22.98161 -44.08509 38952 ft 490 kts 63°
2026-04-26 13:06 -22.95439 -44.01741 38953 ft 489 kts 63°
2026-04-26 13:06 -22.92708 -43.94958 38946 ft 490 kts 63°
2026-04-26 13:07 -22.89981 -43.88197 38947 ft 490 kts 63°
2026-04-26 13:07 -22.87246 -43.81422 38955 ft 489 kts 63°
2026-04-26 13:08 -22.84503 -43.74636 38955 ft 489 kts 64°
2026-04-26 13:08 -22.81774 -43.67893 38955 ft 488 kts 64°
2026-04-26 13:09 -22.79057 -43.61194 38952 ft 488 kts 64°
2026-04-26 13:09 -22.76324 -43.54464 38961 ft 489 kts 64°
2026-04-26 13:10 -22.73578 -43.47715 38954 ft 488 kts 64°
2026-04-26 13:10 -22.70850 -43.41017 38960 ft 487 kts 64°
2026-04-26 13:11 -22.68105 -43.34286 38968 ft 487 kts 63°
2026-04-26 13:11 -22.65366 -43.27581 38991 ft 486 kts 63°
2026-04-26 13:12 -22.62637 -43.20911 38989 ft 488 kts 63°
2026-04-26 13:12 -22.59882 -43.14185 38997 ft 487 kts 63°
2026-04-26 13:13 -22.57149 -43.07514 39005 ft 486 kts 63°
2026-04-26 13:13 -22.54396 -43.00812 38998 ft 488 kts 64°
2026-04-26 13:14 -22.51637 -42.94103 39014 ft 487 kts 64°
2026-04-26 13:14 -22.48883 -42.87423 38999 ft 487 kts 63°
2026-04-26 13:15 -22.46100 -42.80679 39017 ft 486 kts 63°
2026-04-26 13:15 -22.43814 -42.75142 39036 ft 486 kts 64°
2026-04-26 13:16 -22.40581 -42.67327 39046 ft 486 kts 63°
2026-04-26 13:16 -22.37818 -42.60651 39054 ft 485 kts 64°
2026-04-26 13:17 -22.33678 -42.50671 39076 ft 484 kts 64°
2026-04-26 13:18 -22.29398 -42.40808 39094 ft 482 kts 58°
2026-04-26 13:19 -22.23714 -42.31907 39134 ft 478 kts 49°
2026-04-26 13:19 -22.19584 -42.26240 39132 ft 478 kts 49°
2026-04-26 13:20 -22.15486 -42.20592 39101 ft 478 kts 49°
2026-04-26 13:20 -22.11426 -42.14916 39084 ft 478 kts 49°
2026-04-26 13:21 -22.07380 -42.09214 39070 ft 477 kts 50°
2026-04-26 13:21 -22.03360 -42.03531 39072 ft 477 kts 50°
2026-04-26 13:22 -21.99327 -41.97832 39075 ft 477 kts 50°
2026-04-26 13:22 -21.95284 -41.92124 39057 ft 476 kts 50°
2026-04-26 13:23 -21.91274 -41.86469 39056 ft 477 kts 50°
2026-04-26 13:23 -21.87223 -41.80764 39055 ft 476 kts 50°
2026-04-26 13:24 -21.83177 -41.75070 39070 ft 476 kts 50°
2026-04-26 13:24 -21.79149 -41.69407 39076 ft 476 kts 50°
2026-04-26 13:25 -21.75130 -41.63765 39060 ft 477 kts 50°
2026-04-26 13:25 -21.71078 -41.58081 39036 ft 477 kts 50°
2026-04-26 13:25 -21.69064 -41.55256 38829 ft 473 kts 50°
2026-04-26 13:26 -21.67074 -41.52467 38013 ft 476 kts 50°
2026-04-26 13:26 -21.65047 -41.49627 37464 ft 471 kts 50°
2026-04-26 13:26 -21.63065 -41.46851 37003 ft 465 kts 50°
2026-04-26 13:26 -21.61124 -41.44135 36436 ft 462 kts 50°
2026-04-26 13:27 -21.59152 -41.41378 35781 ft 462 kts 50°
2026-04-26 13:27 -21.57195 -41.38645 35049 ft 462 kts 51°
2026-04-26 13:27 -21.55242 -41.35918 34283 ft 463 kts 51°
2026-04-26 13:27 -21.53277 -41.33175 33495 ft 464 kts 51°
2026-04-26 13:28 -21.51283 -41.30435 32708 ft 465 kts 50°
2026-04-26 13:28 -21.49200 -41.27793 31941 ft 466 kts 45°
2026-04-26 13:28 -21.46881 -41.25335 31103 ft 468 kts 40°
2026-04-26 13:28 -21.44445 -41.23058 30236 ft 471 kts 38°
2026-04-26 13:29 -21.41868 -41.20799 29304 ft 475 kts 37°
2026-04-26 13:29 -21.40136 -41.19315 28670 ft 478 kts 37°
2026-04-26 13:29 -21.36674 -41.16368 27601 ft 477 kts 37°
2026-04-26 13:29 -21.34063 -41.14133 26946 ft 473 kts 37°
2026-04-26 13:30 -21.31530 -41.11948 26257 ft 471 kts 38°
2026-04-26 13:30 -21.28962 -41.09718 25548 ft 468 kts 38°
2026-04-26 13:30 -21.26442 -41.07521 24833 ft 465 kts 38°
2026-04-26 13:30 -21.23966 -41.05356 24121 ft 463 kts 38°
2026-04-26 13:31 -21.21454 -41.03156 23400 ft 460 kts 38°
2026-04-26 13:31 -21.18998 -41.01003 22686 ft 457 kts 38°
2026-04-26 13:31 -21.16547 -40.98853 21980 ft 454 kts 38°
2026-04-26 13:31 -21.14133 -40.96734 21285 ft 451 kts 38°
2026-04-26 13:32 -21.11693 -40.94592 20565 ft 449 kts 38°
2026-04-26 13:32 -21.09280 -40.92476 19842 ft 447 kts 38°
2026-04-26 13:32 -21.06894 -40.90384 19121 ft 445 kts 38°
2026-04-26 13:32 -21.04513 -40.88295 18384 ft 443 kts 38°
2026-04-26 13:33 -21.02127 -40.86204 17647 ft 441 kts 38°
2026-04-26 13:33 -20.99766 -40.84133 16934 ft 438 kts 38°
2026-04-26 13:33 -20.97398 -40.82057 16204 ft 435 kts 39°
2026-04-26 13:33 -20.95066 -40.80014 15485 ft 432 kts 39°
2026-04-26 13:34 -20.92760 -40.77995 14783 ft 428 kts 39°
2026-04-26 13:34 -20.90449 -40.75973 14080 ft 425 kts 39°
2026-04-26 13:34 -20.88141 -40.73955 13375 ft 421 kts 39°
2026-04-26 13:34 -20.87377 -40.73288 13141 ft 419 kts 39°
2026-04-26 13:35 -20.83623 -40.70010 11952 ft 413 kts 40°
2026-04-26 13:35 -20.81481 -40.68080 11252 ft 401 kts 44°
2026-04-26 13:35 -20.79622 -40.65960 10785 ft 380 kts 51°
2026-04-26 13:35 -20.78043 -40.63776 10582 ft 354 kts 55°
2026-04-26 13:36 -20.76679 -40.61714 10458 ft 330 kts 57°
2026-04-26 13:36 -20.75418 -40.59753 10305 ft 309 kts 57°
2026-04-26 13:36 -20.74232 -40.57916 10140 ft 291 kts 57°
2026-04-26 13:36 -20.73094 -40.56177 9801 ft 281 kts 57°
2026-04-26 13:37 -20.71979 -40.54497 9435 ft 274 kts 57°
2026-04-26 13:37 -20.70874 -40.52849 9088 ft 273 kts 56°
2026-04-26 13:37 -20.69753 -40.51184 8747 ft 278 kts 56°
2026-04-26 13:37 -20.68613 -40.49497 8407 ft 278 kts 56°
2026-04-26 13:38 -20.67483 -40.47826 8016 ft 278 kts 56°
2026-04-26 13:38 -20.66361 -40.46169 7680 ft 275 kts 56°
2026-04-26 13:38 -20.65247 -40.44524 7343 ft 274 kts 55°
2026-04-26 13:38 -20.64134 -40.42879 7001 ft 272 kts 55°
2026-04-26 13:39 -20.63024 -40.41238 6658 ft 271 kts 55°
2026-04-26 13:39 -20.61918 -40.39606 6315 ft 270 kts 55°
2026-04-26 13:39 -20.60819 -40.37983 5974 ft 269 kts 55°
2026-04-26 13:39 -20.59724 -40.36367 5629 ft 269 kts 54°
2026-04-26 13:40 -20.58634 -40.34759 5282 ft 267 kts 54°
2026-04-26 13:40 -20.57540 -40.33145 4950 ft 266 kts 54°
2026-04-26 13:40 -20.56456 -40.31546 4603 ft 265 kts 53°
2026-04-26 13:40 -20.55400 -40.29990 4311 ft 255 kts 53°
2026-04-26 13:41 -20.54391 -40.28501 4214 ft 238 kts 53°
2026-04-26 13:41 -20.53440 -40.27097 4174 ft 225 kts 53°
2026-04-26 13:41 -20.52543 -40.25794 4119 ft 211 kts 51°
2026-04-26 13:41 -20.51511 -40.24746 4016 ft 203 kts 28°
2026-04-26 13:42 -20.50157 -40.24371 3860 ft 203 kts 358°
2026-04-26 13:42 -20.48754 -40.24562 3654 ft 203 kts 349°
2026-04-26 13:42 -20.47377 -40.24786 3452 ft 196 kts 351°
2026-04-26 13:42 -20.46031 -40.24979 3265 ft 190 kts 352°
2026-04-26 13:43 -20.44749 -40.25162 3096 ft 183 kts 351°
2026-04-26 13:43 -20.43500 -40.25344 2928 ft 177 kts 351°
2026-04-26 13:43 -20.42285 -40.25525 2762 ft 174 kts 351°
2026-04-26 13:43 -20.41085 -40.25702 2614 ft 174 kts 351°
2026-04-26 13:44 -20.39877 -40.25881 2453 ft 174 kts 351°
2026-04-26 13:44 -20.38719 -40.26053 2294 ft 168 kts 351°
2026-04-26 13:44 -20.37540 -40.26227 2126 ft 167 kts 351°
2026-04-26 13:44 -20.36423 -40.26392 1992 ft 154 kts 351°
2026-04-26 13:45 -20.35389 -40.26545 1848 ft 148 kts 351°
2026-04-26 13:45 -20.34377 -40.26695 1721 ft 143 kts 351°
2026-04-26 13:45 -20.33375 -40.26843 1482 ft 147 kts 351°
2026-04-26 13:45 -20.32364 -40.26992 1249 ft 144 kts 351°
2026-04-26 13:46 -20.31376 -40.27138 1035 ft 144 kts 351°
2026-04-26 13:46 -20.30372 -40.27284 885 ft 143 kts 352°
2026-04-26 13:46 -20.29384 -40.27434 753 ft 144 kts 351°
2026-04-26 13:46 -20.28389 -40.27600 508 ft 143 kts 351°
2026-04-26 13:47 -20.27384 -40.27743 237 ft 143 kts 352°
2026-04-26 13:47 -20.26400 -40.27876 27 ft 139 kts 352°
2026-04-26 13:47 -20.25571 -40.27998 19 ft 81 kts 352°
2026-04-26 13:47 -20.25237 -40.28049 18 ft 32 kts 353°
2026-04-26 13:48 -20.25082 -40.28104 18 ft 13 kts 331°
2026-04-26 13:48 -20.25036 -40.28144 18 ft 7 kts 297°
2026-04-26 13:48 -20.25037 -40.28178 18 ft 4 kts 234°
2026-04-26 13:48 -20.25065 -40.28201 18 ft 5 kts 213°
2026-04-26 13:49 -20.25100 -40.28224 18 ft 6 kts 211°
2026-04-26 13:49 -20.25146 -40.28235 18 ft 8 kts 179°
2026-04-26 13:49 -20.25221 -40.28227 18 ft 11 kts 173°
2026-04-26 13:49 -20.25307 -40.28215 19 ft 13 kts 171°
2026-04-26 13:50 -20.25406 -40.28201 19 ft 15 kts 173°
2026-04-26 13:50 -20.25516 -40.28184 19 ft 16 kts 170°
2026-04-26 13:50 -20.25637 -40.28166 19 ft 18 kts 172°
2026-04-26 13:50 -20.25770 -40.28147 19 ft 18 kts 171°
2026-04-26 13:51 -20.25891 -40.28128 19 ft 16 kts 171°
2026-04-26 13:51 -20.26001 -40.28113 19 ft 14 kts 172°
2026-04-26 13:51 -20.26097 -40.28098 19 ft 12 kts 172°
2026-04-26 13:51 -20.26181 -40.28086 19 ft 12 kts 172°
2026-04-26 13:52 -20.26281 -40.28072 20 ft 15 kts 171°
2026-04-26 13:52 -20.26377 -40.28057 20 ft 12 kts 173°
2026-04-26 13:52 -20.26455 -40.28048 20 ft 9 kts 171°
2026-04-26 13:52 -20.26513 -40.28039 20 ft 7 kts 172°
2026-04-26 13:53 -20.26572 -40.28034 21 ft 9 kts 190°
2026-04-26 13:53 -20.26604 -40.28075 21 ft 6 kts 258°
2026-04-26 13:53 -20.26611 -40.28115 21 ft 4 kts 260°
2026-04-26 13:53 -20.26615 -40.28143 21 ft 3 kts 262°
2026-04-26 13:54 -20.26617 -40.28153 21 ft 0 kts 261°